Погода в Красноуфимске

Погода в Красноуфимске : погода сейчас, прогноз погоды и архив. Всё, что Вы хотите узнать о погоде в Красноуфимске!

Хотите узнать прогноз погоды в Красноуфимске? Тогда Вам сюда: Погода в Красноуфимске

Поиск расширенной информации на нашем сайте:

Другие новости

Новости СМИ2

Главная страница сайта

Новости сайта

03.07.2017

Напоминаем, что на нашем специализированном сайте Метеоцентр.Азия вы можете получить высокодетализированные автоматические прогнозы погоды по пунктам России, СНГ и мира в авиационном формате (включающие направление и скорость ветра, видимость, явления погоды, количество и форму облачности, нижнюю и верхнюю границу облачности).

Рекомендуем: Работы по хозяйству; гарантия качества.

Погода в Красноуфимске - сегодня

Время (UTC), дата Ветер
(°,м/с) 
Видим.   Явления Облачность Т
(°С)
Тd
(°С)
f(%) Тe
(°С)
Pmin
(гПа)
dP
(гПа)
Po
(мм)
O2
(г/м3)
Тmin Tmax R s Состояние
почвы
03 18.11.17 270 (З) 20000 м    9/9 600 м кучево-дожд. 
[Cb cap]
-1.4 -5.1 76 -3  1018.8  1.2  745  302  -1.7    0.3  равномерный
мокрый или
старый снег
100% 
06 18.11.17 260 (З) 20000 м    10/10 600 м кучево-дожд. 
[Cb cap]
-2 -6.6 71 -4  1019.7  0.8  745  303  -2         
09 18.11.17 210 (ЮЗ) 20000 м    10/10 600 м кучево-дожд. 
[Cb cap]
-1.8 -4.9 79 -3  1019.4  -0.2  745  303           
12 18.11.17 190 (Ю) 20000 м    10/10 600 м кучево-дожд. 
[Cb cap]
-1.1 -4 81 -2  1018.9  -0.5  745  302           
15 18.11.17 210 (ЮЗ) 4000 м  слаб. ливневой снег  10/10 600 м кучево-дожд. 
[Cb cap]
-0.8 -3.6 81 -2  1018.6  -0.2  745  301    -0.8  0.4     
18 18.11.17 220 (ЮЗ) 4000 м  слаб. ливневой снег  10/10 600 м кучево-дожд. 
[Cb cap]
-0.5 -3.6 80 -1  1018.8  0.2  745  301           
21 18.11.17 250 (З) 20000 м  {ливн. осадки}  10/10 600 м кучево-дожд. 
[Cb cap]
-0.4 -3.4 80 -1  1020.2  1.4  746  301           
00 19.11.17 230 (ЮЗ) 20000 м  {ливн. осадки}  10/10 600 м кучево-дожд. 
[Cb cap]
-0.1 -1.8 88 -1  1022.5  2.1  747  301           
03 19.11.17 240 (ЮЗ) 20000 м    10/10 600 м кучево-дожд. 
[Cb cap]
-0.1 -3.7 77 -1  1024  1.5  749  302  -0.8    0.2  равномерный
мокрый или
старый снег
100% 
06 19.11.17 200 (Ю) 20000 м    10/10 600 м кучево-дожд. 
[Cb cap]
+0.2 -2.7 81 -1  1025  1.1  749  302           
09 19.11.17 200 (Ю) 20000 м    10/10 600 м кучево-дожд. 
[Cb cap]
+0.5 -2.1 83 1025.5  0.5  750  302           
12 19.11.17 210 (ЮЗ) 20000 м    10/10 600 м кучево-дожд. 
[Cb cap]
+0.4 -2.9 78 -1  1026.1  0.5  750  302           
15 19.11.17 210 (ЮЗ) 20000 м  {ливн. осадки}  10/10 600 м кучево-дожд. 
[Cb cap]
+0.3 -2.7 80 1026.1  750  302    +0.8  0.0     
18 19.11.17 200 (Ю) 20000 м  {ливн. осадки}  10/10 600 м кучево-дожд. 
[Cb cap]
+0.2 -4 73 -1  1026.2  0.1  750  302           
21 19.11.17 200 (Ю) 20000 м    10/10 600 м кучево-дожд. 
[Cb cap]
-0.2 -4.9 71 -1  1026.4  0.1  750  303           
00 20.11.17 170 (Ю) 20000 м    10/10 600 м кучево-дожд. 
[Cb cap]
-0.4 -4.8 72 -1  1025.8  -0.5  750  303           
03 20.11.17 160 (Ю) 4000 м  слаб. снег  10/10 600 м 
[Sc]
-0.8 -3.6 81 -3  1025  -0.8  749  303  -0.8    0.0  равномерный
мокрый или
старый снег
100% 
06 20.11.17 180 (Ю) 20000 м  {снег}  10/10 600 м 
[Sc]
-0.6 -3.7 80 -1  1025  749  303    -1       
09 20.11.17 190 (Ю) 20000 м  {ливн. осадки}  10/10 600 м кучево-дожд. 
[Cb cap]
+0.7 -2.7 78 -1  1024.9  749  301           
12 20.11.17 160 (Ю) 20000 м  {ливн. осадки}  10/10 600 м кучево-дожд. 
[Cb cap]
+0.7 -2.4 80 +1  1024.3  -0.6  749  301           
15 20.11.17 160 (Ю) 20000 м    10/10 600 м кучево-дожд. 
[Cb cap]
+1.2 -2.6 76 +1  1023.8  -0.4  749  301    +1.2  0.0     
18 20.11.17 170 (Ю) 4000 м  слаб. ливневой снег  10/10 600 м кучево-дожд. 
[Cb cap]
+1.6 -2.2 76 +2  1023.5  -0.3  748  300           
21 20.11.17 190 (Ю) 20000 м  {ливн. осадки}  10/10 600 м кучево-дожд. 
[Cb cap]
+1.6 -1.5 80 +2  1023.5  748  300           
00 21.11.17 160 (Ю) 20000 м  {ливн. осадки}  10/10 600 м кучево-дожд. 
[Cb cap]
+1.8 -1.1 81 +3  1023.7  0.2  748  300           
03 21.11.17 200 (Ю) 20000 м    8/8 600 м кучево-дожд. 
[Cb cap]
+1.1 -3.4 72 +2  1023.7  748  301  +1.1    0.0  равномерный
мокрый или
старый снег
100% 
Время (UTC), дата Ветер
(°,м/с) 
Видим.   Явления Облачность Т
(°С)
Тd
(°С)
f(%) Тe
(°С)
Pmin
(гПа)
dP
(гПа)
Po
(мм)
O2
(г/м3)
Тmin Tmax R s Состояние
почвы

Для получения пояснительной информации подведите курсор к названию столбца.

ПОГОДА в Красноуфимске - архив

Всё, что Вы хотите узнать о погоде в Красноуфимске - удобно и подробно!

Выберите нужную дату (начиная с 1 января 2015* года) и нажмите кнопку "Найти".
Будут отображены архивные сводки погоды по пункту Красноуфимск, начиная с указанной даты.


Отображать данные в формате CSV (для использования в таблицах Excel)


Внимание! Наш архив погоды предназначен исключительно для личного некоммерческого использования в познавательных целях. Если Вам необходимы официальные справки о состоянии погоды (для производственных, юридических, коммерческих и т.п. целей), обращайтесь в органы Росгидромета.

*Примечание: данная дата относится к архиву по метеостанциям СССР (Россия, СНГ, Балтия).
Архив по метеостанциям Зарубежной Европы и Азии (кроме Китая) хранится 10 дней, по другим регионам земного шара (Китай, Африка, Америка, Австралия, Океания) - 1 день.

Красноуфимск - район местоположения метеостанции


Название, широта, долгота, высота метеостанции:
Красноуфимск 56.6°ш. 57.8°д. 206 м над ур. моря [Российская Федерация]

Дополнительная информация

В oтличие oт бoльшинства пoгoдных сайтoв мы публикуем пoдрoбную метеoинфoрмацию в детальнoм прoфессиoнальнoм фoрмате.

Характеристики температуры и влажнoсти вoздуха измеряются на высoте 2 м в тени вдали oт зданий и деревьев.
Скoрoсть ветра измеряется на высoте 10 м (на урoвне рoста челoвека скoрoсть ветра ниже в 1.5-2 раза). Если метеoстанция нахoдится в гoрoде или в лесу, тo скoрoсть ветра занижена на 2-4 м/с пo сравнению с oткрытым местoм. Скoрoсть ветра над акватoриями крупных рек и oзёр, а также на вершинах хoлмoв на 2-5 м/с выше, чем в oбычных услoвиях.
Атмoсфернoе давление в разных тoчках местнoсти мoжет значительнo oтличаться oт давления на метеoстанции, в зависимoсти oт услoвий рельефа (при пoдъёме на 10 м давление пoнижается примернo на 1 мм рт.ст.).